Weather History for Toledo, OH

Change the Weather History Date:

Tuesday, May 14, 2013

  Actual Average Record
Temperature  
Mean Temperature 61 °F 59 °F  
Max Temperature 81 °F 70 °F 92 °F (1991)
Min Temperature 41 °F 48 °F 29 °F (1973)
Degree Days  
Heating Degree Days 4 7  
Month to date heating degree days 90 122  
Since 1 July heating degree days 6067 6024  
Cooling Degree Days 0 1  
Month to date cooling degree days 6 11  
Year to date cooling degree days 6 19  
Growing Degree Days 10 (Base 50)    
Moisture  
Dew Point 40 °F    
Average Humidity 46    
Maximum Humidity 62    
Minimum Humidity 30    
Precipitation  
Precipitation T in 0.12 in 0.63 in (1981)
Month to date precipitation 0.23 1.54  
Year to date precipitation 12.12 11.33  
Snow  
Snow 0.00 in 0.00 in - ()
Month to date snowfall 0.0 0.1  
Since 1 July snowfall 22.4 37.6  
Snow Depth 0.00 in    
Sea Level Pressure  
Sea Level Pressure 29.91 in    
Wind  
Wind Speed 9 mph (SSW)    
Max Wind Speed 24 mph    
Max Gust Speed 33 mph    
Visibility 10 miles    
Events      
T = Trace of Precipitation, MM = Missing Value Source: NWS Daily Summary

Daily Weather History Graph

Daily Weather History Graph

Search for Another Location

Airport:

Trip Planner

Search our weather history database for the weather conditions in past years. The results will help you decide how hot, cold, wet, or windy it might be!

Date:

Astronomy

May. 14, 2013 Rise Set
Actual Time 6:16 AM EDT 8:47 PM EDT
Civil Twilight 5:45 AM EDT 9:18 PM EDT
Nautical Twilight 5:05 AM EDT 9:58 PM EDT
Astronomical Twilight 4:21 AM EDT 10:42 PM EDT
Moon 9:55 AM EDT (5/14) No Moon Set
Length of Visible Light 15h 33m
Length of Day
14h 30m
Waxing Crescent, 19% of the Moon is Illuminated
May 14
Waxing Crescent
May 18
First Quarter
May 25
Full
May 31
Last Quarter
Jun 8
New

Hourly Weather History & Observations

Time (EDT) Temp. Windchill Dew Point Humidity Pressure Visibility Wind Dir Wind Speed Gust Speed Precip Events Conditions
12:52 AM 42.1 °F - 28.0 °F 58% 30.12 in 10.0 mi Calm Calm - N/A   Clear
1:52 AM 42.1 °F - 28.9 °F 60% 30.11 in 10.0 mi Calm Calm - N/A   Clear
2:52 AM 43.0 °F - 28.9 °F 58% 30.10 in 10.0 mi Calm Calm - N/A   Partly Cloudy
3:52 AM 43.0 °F 41.3 °F 30.0 °F 60% 30.07 in 10.0 mi SSE 3.5 mph - N/A   Scattered Clouds
4:52 AM 44.1 °F - 30.9 °F 60% 30.08 in 10.0 mi Calm Calm - N/A   Overcast
5:52 AM 45.0 °F 42.6 °F 32.0 °F 60% 30.06 in 10.0 mi ESE 4.6 mph - 0.00 in   Overcast
6:52 AM 46.0 °F 43.9 °F 33.1 °F 61% 30.05 in 10.0 mi Variable 4.6 mph - N/A   Overcast
7:52 AM 46.9 °F - 33.1 °F 59% 30.04 in 10.0 mi SSE 5.8 mph - N/A   Overcast
8:52 AM 51.1 °F - 34.0 °F 52% 30.03 in 10.0 mi South 8.1 mph - N/A   Mostly Cloudy
9:52 AM 55.9 °F - 35.1 °F 45% 29.99 in 10.0 mi South 10.4 mph - N/A   Partly Cloudy
10:52 AM 63.0 °F - 35.1 °F 35% 29.94 in 10.0 mi South 12.7 mph 21.9 mph N/A   Clear
11:52 AM 66.9 °F - 35.1 °F 31% 29.90 in 10.0 mi South 15.0 mph 25.3 mph N/A   Partly Cloudy
12:52 PM 68.0 °F - 37.9 °F 33% 29.86 in 10.0 mi SSW 20.7 mph 33.4 mph N/A   Scattered Clouds
1:52 PM 72.0 °F - 41.0 °F 33% 29.86 in 10.0 mi South 13.8 mph 21.9 mph N/A   Mostly Cloudy
2:52 PM 75.0 °F - 43.0 °F 32% 29.81 in 10.0 mi SSW 12.7 mph 25.3 mph N/A   Clear
3:52 PM 77.0 °F - 45.0 °F 32% 29.79 in 10.0 mi SW 15.0 mph 23.0 mph N/A   Clear
4:52 PM 80.1 °F - 46.0 °F 30% 29.78 in 10.0 mi SW 13.8 mph 21.9 mph N/A   Clear
5:52 PM 80.1 °F - 46.9 °F 31% 29.78 in 10.0 mi West 16.1 mph 21.9 mph N/A   Clear
6:52 PM 79.0 °F - 48.9 °F 35% 29.76 in 10.0 mi WSW 15.0 mph - N/A   Clear
7:52 PM 79.0 °F - 50.0 °F 36% 29.74 in 10.0 mi SW 5.8 mph - N/A   Clear
8:52 PM 69.1 °F - 54.0 °F 58% 29.74 in 10.0 mi South 4.6 mph - N/A   Clear
9:52 PM 71.1 °F - 55.0 °F 57% 29.75 in 10.0 mi Calm Calm - 0.00 in   Scattered Clouds
10:52 PM 70.0 °F - 54.0 °F 57% 29.73 in 10.0 mi SSW 6.9 mph - N/A   Partly Cloudy
11:52 PM 73.0 °F - 54.0 °F 51% 29.72 in 10.0 mi SSW 6.9 mph - N/A   Clear